Eden Prairie, MN

6:12 AM CST on February 09, 2016 (GMT -0600)
Flying Cloud

Weather History for KFCM - May, 2012

Change the Weather History Date:

Thursday, May 31, 2012

  Actual Average Record
Temperature  
Mean Temperature 58 °F -  
Max Temperature 66 °F 69 °F 88 °F (2014)
Min Temperature 51 °F 50 °F 44 °F (2015)
Degree Days  
Heating Degree Days 8    
Growing Degree Days 8 (Base 50)    
Moisture  
Dew Point 43 °F    
Average Humidity 62    
Maximum Humidity 93    
Minimum Humidity 37    
Precipitation  
Precipitation 0.02 in - - ()
Sea Level Pressure  
Sea Level Pressure 30.02 in    
Wind  
Wind Speed 3 mph (NNE)    
Max Wind Speed 9 mph    
Max Gust Speed -    
Visibility 10 miles    
Events Rain    
Averages and records for this station are not official NWS values.
T = Trace of Precipitation, MM = Missing Value Source: NWS Daily Summary

Daily Weather History Graph

Daily Weather History Graph

Search for Another Location

Airport or City:

Trip Planner

Search our weather history database for the weather conditions in past years. The results will help you decide how hot, cold, wet, or windy it might be!

Date:

Astronomy

May. 31, 2012 Rise Set
Actual Time 5:31 AM CDT 8:52 PM CDT
Civil Twilight 4:55 AM CDT 9:28 PM CDT
Nautical Twilight 4:08 AM CDT 10:15 PM CDT
Astronomical Twilight 3:09 AM CDT 11:15 PM CDT
Moon 4:34 PM CDT (5/31) 2:40 AM CDT (5/31)
Length of Visible Light 16h 33m
Length of Day
15h 21m
Waxing Gibbous, 80% of the Moon is Illuminated
May 31
Waxing Gibbous
Jun 4
Full
Jun 11
Last Quarter
Jun 19
New
Jun 26
First Quarter

Hourly Weather History & Observations

Time (CDT) Temp. Dew Point Humidity Pressure Visibility Wind Dir Wind Speed Gust Speed Precip Events Conditions
12:53 AM 53.1 °F 48.0 °F 83% 30.02 in 10.0 mi SW 5.8 mph - 0.00 in Rain Light Rain
1:53 AM 52.0 °F 48.9 °F 89% 30.02 in 10.0 mi West 4.6 mph - 0.01 in Rain Light Rain
3:53 AM 52.0 °F 48.9 °F 89% 30.01 in 10.0 mi Calm Calm - 0.00 in   Overcast
4:53 AM 52.0 °F 50.0 °F 93% 30.02 in 10.0 mi Calm Calm - N/A   Overcast
5:53 AM 52.0 °F 48.9 °F 89% 30.04 in 10.0 mi Calm Calm - 0.01 in   Overcast
6:08 AM 51.8 °F 48.2 °F 88% 30.03 in 10.0 mi Calm Calm - N/A   Overcast
6:53 AM 53.1 °F 48.9 °F 86% 30.05 in 10.0 mi Calm Calm - N/A   Mostly Cloudy
7:53 AM 55.9 °F 48.0 °F 75% 30.05 in 10.0 mi Calm Calm - N/A   Partly Cloudy
8:27 AM 55.4 °F 46.4 °F 72% 30.05 in 10.0 mi NW 3.5 mph - N/A   Mostly Cloudy
8:50 AM 57.2 °F 46.4 °F 67% 30.05 in 10.0 mi Calm Calm - N/A   Mostly Cloudy
8:53 AM 57.0 °F 46.0 °F 67% 30.06 in 10.0 mi East 3.5 mph - N/A   Mostly Cloudy
9:03 AM 57.2 °F 44.6 °F 63% 30.05 in 10.0 mi Calm Calm - N/A   Mostly Cloudy
9:53 AM 57.0 °F 42.1 °F 57% 30.05 in 10.0 mi Calm Calm - N/A   Overcast
10:53 AM 60.1 °F 39.9 °F 47% 30.05 in 10.0 mi NNE 9.2 mph - N/A   Overcast
11:53 AM 59.0 °F 39.0 °F 48% 30.05 in 10.0 mi NE 6.9 mph - N/A   Scattered Clouds
12:53 PM 62.1 °F 39.0 °F 43% 30.04 in 10.0 mi NE 8.1 mph - N/A   Scattered Clouds
1:53 PM 63.0 °F 39.0 °F 41% 30.03 in 10.0 mi North 8.1 mph - N/A   Mostly Cloudy
2:53 PM 64.0 °F 39.9 °F 41% 30.01 in 10.0 mi NNE 9.2 mph - N/A   Overcast
3:53 PM 63.0 °F 37.9 °F 40% 30.00 in 10.0 mi NE 8.1 mph - N/A   Mostly Cloudy
4:53 PM 64.0 °F 37.0 °F 37% 30.00 in 10.0 mi Variable 4.6 mph - N/A   Mostly Cloudy
5:53 PM 63.0 °F 37.9 °F 40% 29.99 in 9.0 mi North 9.2 mph - N/A   Mostly Cloudy
6:53 PM 62.1 °F 37.9 °F 41% 29.99 in 7.0 mi NNW 4.6 mph - N/A   Scattered Clouds
7:53 PM 63.0 °F 39.0 °F 41% 29.99 in 10.0 mi NE 3.5 mph - N/A   Clear
8:53 PM 59.0 °F 37.0 °F 44% 29.99 in 10.0 mi NNE 3.5 mph - N/A   Clear
9:53 PM 55.9 °F 39.9 °F 55% 30.00 in 10.0 mi Calm Calm - N/A   Clear
10:53 PM 54.0 °F 44.1 °F 69% 30.00 in 10.0 mi Calm Calm - N/A   Clear
11:53 PM 52.0 °F 44.1 °F 74% 29.99 in 10.0 mi Calm Calm - N/A   Clear